カタログに戻る

S-Net A

S-NET A

運用中アマチュア無線SSO
NORAD 43188·PAYLOAD·🇩🇪 Germany

打ち上げ Feb 1, 2018 から Vostochny Cosmodrome

Loading…

次のパス (今後24時間)

TLE

最新Source: AMSAT

元期: Sep 13, 2026, 23:28 UTC

1 43188U 18014J   26256.97833205  .00003858  00000-0  19633-3 0  9995
2 43188  97.5270 161.4238 0010324  70.5745 289.6603 15.17380312472221

AllMySatでS-Net Aをリアルタイム追跡

Download on the App Store